TimePST,TemperatureF,Dew PointF,Humidity,Sea Level PressureIn,VisibilityMPH,Wind Direction,Wind SpeedMPH,Gust SpeedMPH,PrecipitationIn,Events,Conditions,WindDirDegrees,DateUTC
12:15 AM,46.4,46.4,100,30.28,10.0,Calm,Calm,-,N/A,,Unknown,0,2012-12-08 08:15:00
12:35 AM,46.4,46.4,100,30.27,7.0,Calm,Calm,-,N/A,,Unknown,0,2012-12-08 08:35:00
12:55 AM,44.6,44.6,100,30.27,2.5,Calm,Calm,-,N/A,,Unknown,0,2012-12-08 08:55:00
1:15 AM,44.6,42.8,93,30.28,0.8,Calm,Calm,-,N/A,,Unknown,0,2012-12-08 09:15:00
1:35 AM,44.6,42.8,93,30.27,1.0,Calm,Calm,-,N/A,,Unknown,0,2012-12-08 09:35:00
1:55 AM,44.6,44.6,100,30.28,0.2,Calm,Calm,-,N/A,,Unknown,0,2012-12-08 09:55:00
2:15 AM,44.6,44.6,100,30.28,0.2,ESE,3.5,-,N/A,,Unknown,120,2012-12-08 10:15:00
2:35 AM,44.6,42.8,93,30.28,7.0,ESE,3.5,-,N/A,,Unknown,120,2012-12-08 10:35:00
3:15 AM,44.6,44.6,100,30.27,10.0,ESE,5.8,-,N/A,,Unknown,120,2012-12-08 11:15:00
3:35 AM,44.6,44.6,100,30.27,10.0,ESE,4.6,-,N/A,,Unknown,110,2012-12-08 11:35:00
3:55 AM,44.6,44.6,100,30.27,10.0,SE,3.5,-,N/A,,Unknown,130,2012-12-08 11:55:00
4:15 AM,44.6,44.6,100,30.27,10.0,ESE,3.5,-,N/A,,Unknown,120,2012-12-08 12:15:00
4:35 AM,44.6,44.6,100,30.28,10.0,SE,4.6,-,N/A,,Unknown,130,2012-12-08 12:35:00
4:55 AM,42.8,42.8,100,30.28,10.0,ESE,3.5,-,N/A,,Unknown,120,2012-12-08 12:55:00
5:15 AM,42.8,42.8,100,30.28,10.0,ESE,3.5,-,N/A,,Unknown,120,2012-12-08 13:15:00
5:35 AM,42.8,42.8,100,30.29,10.0,Calm,Calm,-,N/A,,Unknown,0,2012-12-08 13:35:00
5:55 AM,42.8,42.8,100,30.29,10.0,SSE,3.5,-,N/A,,Unknown,150,2012-12-08 13:55:00
6:15 AM,42.8,42.8,100,30.29,10.0,SE,4.6,-,N/A,,Unknown,130,2012-12-08 14:15:00
6:35 AM,42.8,42.8,100,30.29,10.0,SE,5.8,-,N/A,,Unknown,130,2012-12-08 14:35:00
6:55 AM,41.0,41.0,100,30.29,10.0,SSE,5.8,-,N/A,,Unknown,150,2012-12-08 14:55:00
7:15 AM,42.8,42.8,100,30.29,10.0,SE,4.6,-,N/A,,Mostly Cloudy,130,2012-12-08 15:15:00
7:35 AM,41.0,39.2,93,30.30,10.0,SE,4.6,-,N/A,,Mostly Cloudy,140,2012-12-08 15:35:00
7:55 AM,41.0,41.0,100,30.29,10.0,SSE,3.5,-,N/A,,Scattered Clouds,150,2012-12-08 15:55:00
8:15 AM,41.0,39.2,93,30.30,10.0,SSE,5.8,-,N/A,,Scattered Clouds,150,2012-12-08 16:15:00
8:35 AM,42.8,41.0,93,30.31,10.0,SSE,8.1,-,N/A,,Mostly Cloudy,150,2012-12-08 16:35:00
8:55 AM,42.8,42.8,100,30.32,10.0,SE,5.8,-,N/A,,Mostly Cloudy,140,2012-12-08 16:55:00
9:15 AM,42.8,42.8,100,30.32,10.0,SE,5.8,-,N/A,,Mostly Cloudy,140,2012-12-08 17:15:00
9:35 AM,42.8,42.8,100,30.33,10.0,SE,5.8,-,N/A,,Mostly Cloudy,130,2012-12-08 17:35:00
9:55 AM,44.6,42.8,93,30.33,10.0,SE,6.9,-,N/A,,Mostly Cloudy,140,2012-12-08 17:55:00
10:15 AM,44.6,44.6,100,30.34,10.0,SSE,8.1,-,N/A,,Mostly Cloudy,160,2012-12-08 18:15:00
10:35 AM,44.6,44.6,100,30.34,10.0,SE,8.1,-,N/A,,Mostly Cloudy,140,2012-12-08 18:35:00
10:55 AM,46.4,44.6,93,30.34,10.0,ESE,5.8,-,N/A,,Scattered Clouds,120,2012-12-08 18:55:00
11:15 AM,46.4,44.6,93,30.34,10.0,SE,4.6,-,N/A,,Scattered Clouds,130,2012-12-08 19:15:00
11:35 AM,48.2,44.6,87,30.34,10.0,SE,4.6,-,N/A,,Scattered Clouds,130,2012-12-08 19:35:00
11:55 AM,48.2,46.4,93,30.34,10.0,Calm,Calm,-,N/A,,Scattered Clouds,0,2012-12-08 19:55:00
12:35 PM,48.2,46.4,93,30.33,10.0,Calm,Calm,-,N/A,,Scattered Clouds,0,2012-12-08 20:35:00
12:55 PM,48.2,44.6,87,30.33,10.0,Calm,Calm,-,N/A,,Scattered Clouds,0,2012-12-08 20:55:00
1:15 PM,50.0,44.6,82,30.32,10.0,SE,3.5,-,N/A,,Scattered Clouds,140,2012-12-08 21:15:00
1:35 PM,50.0,44.6,82,30.33,10.0,Calm,Calm,-,N/A,,Scattered Clouds,0,2012-12-08 21:35:00
1:55 PM,50.0,42.8,76,30.32,10.0,Calm,Calm,-,N/A,,Scattered Clouds,0,2012-12-08 21:55:00
2:15 PM,50.0,44.6,82,30.32,10.0,Calm,Calm,-,N/A,,Scattered Clouds,0,2012-12-08 22:15:00
2:35 PM,50.0,44.6,82,30.32,10.0,Calm,Calm,-,N/A,,Scattered Clouds,0,2012-12-08 22:35:00
2:55 PM,51.8,44.6,76,30.32,10.0,Calm,Calm,-,N/A,,Scattered Clouds,0,2012-12-08 22:55:00
3:15 PM,48.2,44.6,87,30.32,10.0,NE,4.6,-,N/A,,Scattered Clouds,50,2012-12-08 23:15:00
3:35 PM,48.2,44.6,87,30.32,10.0,Calm,Calm,-,N/A,,Scattered Clouds,0,2012-12-08 23:35:00
3:55 PM,48.2,44.6,87,30.32,10.0,Calm,Calm,-,N/A,,Scattered Clouds,0,2012-12-08 23:55:00
4:15 PM,48.2,44.6,87,30.32,10.0,Calm,Calm,-,N/A,,Scattered Clouds,0,2012-12-09 00:15:00
4:35 PM,46.4,44.6,93,30.32,10.0,NNE,4.6,-,N/A,,Scattered Clouds,20,2012-12-09 00:35:00
4:55 PM,46.4,44.6,93,30.33,10.0,NNE,4.6,-,N/A,,Scattered Clouds,30,2012-12-09 00:55:00
5:15 PM,46.4,44.6,93,30.33,10.0,Calm,Calm,-,N/A,,Scattered Clouds,0,2012-12-09 01:15:00
5:35 PM,46.4,46.4,100,30.33,10.0,ENE,3.5,-,N/A,,Scattered Clouds,60,2012-12-09 01:35:00
5:55 PM,46.4,44.6,93,30.33,10.0,Calm,Calm,-,N/A,,Scattered Clouds,0,2012-12-09 01:55:00
6:15 PM,42.8,41.0,93,30.33,10.0,SSE,4.6,-,N/A,,Scattered Clouds,150,2012-12-09 02:15:00
6:35 PM,44.6,42.8,93,30.34,10.0,East,3.5,-,N/A,,Scattered Clouds,90,2012-12-09 02:35:00
6:55 PM,42.8,42.8,100,30.34,10.0,ESE,3.5,-,N/A,,Scattered Clouds,110,2012-12-09 02:55:00
7:15 PM,42.8,42.8,100,30.35,10.0,SE,3.5,-,N/A,,Scattered Clouds,140,2012-12-09 03:15:00
7:35 PM,42.8,42.8,100,30.35,10.0,SE,4.6,-,N/A,,Scattered Clouds,130,2012-12-09 03:35:00
7:55 PM,42.8,42.8,100,30.35,10.0,SE,3.5,-,N/A,,Scattered Clouds,140,2012-12-09 03:55:00
8:15 PM,42.8,42.8,100,30.35,3.0,SSE,3.5,-,N/A,,Mostly Cloudy,150,2012-12-09 04:15:00
8:35 PM,42.8,41.0,93,30.36,5.0,SE,3.5,-,N/A,,Scattered Clouds,130,2012-12-09 04:35:00
8:55 PM,42.8,41.0,93,30.36,5.0,Calm,Calm,-,N/A,,Scattered Clouds,0,2012-12-09 04:55:00
9:15 PM,42.8,41.0,93,30.36,10.0,SE,4.6,-,N/A,,Scattered Clouds,130,2012-12-09 05:15:00
9:35 PM,42.8,41.0,93,30.36,10.0,SE,5.8,-,N/A,,Scattered Clouds,140,2012-12-09 05:35:00
9:55 PM,42.8,42.8,100,30.36,10.0,SSE,4.6,-,N/A,,Scattered Clouds,150,2012-12-09 05:55:00
10:15 PM,42.8,41.0,93,30.37,10.0,SSE,3.5,-,N/A,,Unknown,150,2012-12-09 06:15:00
10:35 PM,42.8,42.8,100,30.37,10.0,SE,5.8,-,N/A,,Unknown,130,2012-12-09 06:35:00
10:55 PM,42.8,42.8,100,30.37,10.0,SSE,4.6,-,N/A,,Unknown,150,2012-12-09 06:55:00
11:15 PM,42.8,42.8,100,30.38,10.0,SE,3.5,-,N/A,,Unknown,140,2012-12-09 07:15:00
11:35 PM,42.8,42.8,100,30.38,10.0,SE,4.6,-,N/A,,Unknown,130,2012-12-09 07:35:00
11:55 PM,42.8,41.0,93,30.38,10.0,SSE,5.8,-,N/A,,Unknown,150,2012-12-09 07:55:00